TimeEDT,TemperatureF,Dew PointF,Humidity,Sea Level PressureIn,VisibilityMPH,Wind Direction,Wind SpeedMPH,Gust SpeedMPH,PrecipitationIn,Events,Conditions,WindDirDegrees,DateUTC
12:11 AM,44.6,44.6,100,29.94,3.0,NNE,19.6,28.8,0.07,Rain,Heavy Rain,20,2013-04-24 04:11:00
12:18 AM,44.6,44.6,100,29.94,2.5,NNE,19.6,28.8,0.11,Rain,Heavy Rain,20,2013-04-24 04:18:00
12:44 AM,44.6,44.6,100,29.93,3.0,North,17.3,28.8,0.23,Rain,Heavy Rain,10,2013-04-24 04:44:00
12:56 AM,44.1,44.1,100,29.92,3.0,North,17.3,26.5,0.28,Rain,Heavy Rain,360,2013-04-24 04:56:00
1:56 AM,44.1,44.1,100,29.88,4.0,North,19.6,28.8,0.21,Rain,Rain,360,2013-04-24 05:56:00
2:56 AM,44.1,43.0,96,29.84,5.0,North,17.3,28.8,0.02,Rain,Light Rain,360,2013-04-24 06:56:00
3:13 AM,44.6,42.8,93,29.80,2.5,North,23.0,31.1,0.00,Rain,Light Rain,360,2013-04-24 07:13:00
3:56 AM,44.1,43.0,96,29.80,3.0,North,21.9,40.3,0.01,Rain,Light Rain,350,2013-04-24 07:56:00
4:56 AM,44.1,43.0,96,29.80,5.0,North,18.4,31.1,0.00,,Overcast,350,2013-04-24 08:56:00
5:19 AM,44.6,42.8,93,29.79,2.5,NNW,19.6,35.7,0.00,Rain,Light Rain,340,2013-04-24 09:19:00
5:38 AM,44.6,42.8,93,29.79,1.2,NNW,23.0,35.7,0.00,,Overcast,340,2013-04-24 09:38:00
5:56 AM,44.1,43.0,96,29.79,1.5,NNW,24.2,38.0,0.00,,Overcast,340,2013-04-24 09:56:00
6:08 AM,44.6,42.8,93,29.78,2.0,NNW,23.0,38.0,0.00,Rain,Light Rain,340,2013-04-24 10:08:00
6:56 AM,44.1,44.1,100,29.81,1.2,NNW,21.9,35.7,0.00,Rain,Light Rain,340,2013-04-24 10:56:00
7:52 AM,44.6,44.6,100,29.85,2.5,NNW,18.4,32.2,0.01,Rain,Light Rain,340,2013-04-24 11:52:00
7:56 AM,45.0,44.1,97,29.85,2.5,NNW,20.7,32.2,0.01,Rain,Light Rain,330,2013-04-24 11:56:00
8:56 AM,46.0,45.0,96,29.88,3.0,NNW,17.3,28.8,0.00,,Overcast,330,2013-04-24 12:56:00
9:56 AM,46.9,44.1,90,29.89,4.0,NW,17.3,28.8,N/A,,Overcast,320,2013-04-24 13:56:00
10:13 AM,48.2,44.6,87,29.89,10.0,NW,18.4,28.8,N/A,,Overcast,320,2013-04-24 14:13:00
10:56 AM,48.9,44.1,83,29.90,10.0,NNW,15.0,25.3,N/A,,Overcast,330,2013-04-24 14:56:00
11:56 AM,51.1,45.0,80,29.91,10.0,NNW,9.2,17.3,N/A,,Overcast,330,2013-04-24 15:56:00
12:11 PM,51.8,46.4,82,29.91,10.0,NW,11.5,18.4,N/A,,Overcast,310,2013-04-24 16:11:00
12:56 PM,54.0,46.9,77,29.92,10.0,WNW,4.6,-,N/A,,Overcast,300,2013-04-24 16:56:00
1:56 PM,57.9,48.0,70,29.90,10.0,WSW,10.4,-,N/A,,Overcast,250,2013-04-24 17:56:00
2:30 PM,55.4,46.4,72,29.89,10.0,SSW,15.0,-,N/A,,Scattered Clouds,210,2013-04-24 18:30:00
2:56 PM,55.9,46.0,69,29.89,10.0,SSW,16.1,23.0,N/A,,Clear,210,2013-04-24 18:56:00
3:56 PM,54.0,46.0,75,29.89,10.0,SW,18.4,21.9,N/A,,Clear,220,2013-04-24 19:56:00
4:56 PM,54.0,46.0,75,29.90,10.0,SSW,15.0,21.9,N/A,,Clear,200,2013-04-24 20:56:00
5:56 PM,53.1,45.0,74,29.90,10.0,SSW,16.1,25.3,N/A,,Clear,210,2013-04-24 21:56:00
6:56 PM,51.1,45.0,80,29.91,10.0,SW,17.3,25.3,N/A,,Clear,220,2013-04-24 22:56:00
7:56 PM,50.0,45.0,83,29.93,10.0,SSW,17.3,29.9,N/A,,Clear,210,2013-04-24 23:56:00
8:56 PM,50.0,48.0,93,29.94,8.0,SSW,16.1,25.3,N/A,,Mostly Cloudy,210,2013-04-25 00:56:00
9:56 PM,50.0,48.9,96,29.95,8.0,SSW,11.5,20.7,N/A,,Overcast,200,2013-04-25 01:56:00
10:52 PM,51.8,50.0,94,29.95,8.0,SSW,13.8,-,N/A,,Overcast,210,2013-04-25 02:52:00
10:56 PM,52.0,51.1,97,29.96,8.0,SSW,17.3,25.3,N/A,,Overcast,210,2013-04-25 02:56:00
11:56 PM,52.0,50.0,93,29.95,7.0,SSW,16.1,23.0,N/A,,Overcast,210,2013-04-25 03:56:00